Weather History for Clovis, NM

Change the Weather History Date:

Friday, July 26, 2013

  Actual Average Record
Temperature  
Mean Temperature 75 °F -  
Max Temperature 86 °F 90 °F 107 °F (1944)
Min Temperature 64 °F 63 °F 57 °F (1987)
Cooling Degree Days 10    
Growing Degree Days 25 (Base 50)    
Moisture  
Dew Point 58 °F    
Average Humidity 59    
Maximum Humidity 83    
Minimum Humidity 34    
Precipitation  
Precipitation 0.03 in - - ()
Sea Level Pressure  
Sea Level Pressure 30.24 in    
Wind  
Wind Speed 12 mph (NE)    
Max Wind Speed 22 mph    
Max Gust Speed 24 mph    
Visibility 10 miles    
Events Thunderstorm    
Averages and records for this station are not official NWS values.
T = Trace of Precipitation, MM = Missing Value Source: NWS Daily Summary

Daily Weather History Graph

Daily Weather History Graph

Search for Another Location

Airport:

Trip Planner

Search our weather history database for the weather conditions in past years. The results will help you decide how hot, cold, wet, or windy it might be!

Date:

Astronomy

Jul. 26, 2013 Rise Set
Actual Time 5:58 AM MDT 7:58 PM MDT
Civil Twilight 5:30 AM MDT 8:26 PM MDT
Nautical Twilight 4:56 AM MDT 9:00 PM MDT
Astronomical Twilight 4:20 AM MDT 9:36 PM MDT
Moon 10:29 PM MDT (7/26) 10:22 AM MDT (7/26)
Length of Visible Light 14h 55m
Length of Day
13h 59m
Waning Gibbous, 79% of the Moon is Illuminated
Jul 26
Waning Gibbous
Jul 29
Last Quarter
Aug 6
New
Aug 14
First Quarter
Aug 20
Full

Hourly Weather History & Observations

Time (MDT) Temp. Heat Index Dew Point Humidity Pressure Visibility Wind Dir Wind Speed Gust Speed Precip Events Conditions
12:15 AM 71.6 °F - 62.6 °F 73% 30.21 in 10.0 mi North 10.4 mph - N/A Thunderstorm Mostly Cloudy
12:35 AM 73.4 °F - 64.4 °F 73% 30.21 in 10.0 mi NNW 8.1 mph - N/A Thunderstorm Overcast
12:55 AM 71.6 °F - 59.0 °F 64% 30.20 in 10.0 mi WSW 4.6 mph - N/A   Mostly Cloudy
1:15 AM 69.8 °F - 60.8 °F 73% 30.22 in 10.0 mi NW 5.8 mph - N/A   Mostly Cloudy
1:35 AM 69.8 °F - 59.0 °F 68% 30.20 in 10.0 mi WNW 10.4 mph 16.1 mph N/A   Mostly Cloudy
1:55 AM 68.0 °F - 57.2 °F 68% 30.20 in 10.0 mi WNW 19.6 mph 24.2 mph N/A   Mostly Cloudy
2:15 AM 66.2 °F - 59.0 °F 78% 30.19 in 10.0 mi WNW 17.3 mph - N/A   Overcast
2:35 AM 66.2 °F - 57.2 °F 73% 30.20 in 10.0 mi WNW 21.9 mph - N/A   Overcast
2:55 AM 64.4 °F - 57.2 °F 77% 30.19 in 10.0 mi WNW 19.6 mph - N/A   Overcast
3:15 AM 64.4 °F - 59.0 °F 83% 30.18 in 10.0 mi WNW 8.1 mph - 0.02 in   Overcast
3:35 AM 64.4 °F - 59.0 °F 83% 30.18 in 10.0 mi NW 10.4 mph - 0.03 in   Mostly Cloudy
3:55 AM 66.2 °F - 57.2 °F 73% 30.19 in 10.0 mi NW 16.1 mph - 0.03 in   Mostly Cloudy
4:15 AM 66.2 °F - 59.0 °F 78% 30.18 in 10.0 mi North 11.5 mph - N/A   Scattered Clouds
4:35 AM 66.2 °F - 59.0 °F 78% 30.18 in 10.0 mi North 11.5 mph - N/A   Clear
4:55 AM 68.0 °F - 59.0 °F 73% 30.19 in 10.0 mi North 15.0 mph - N/A   Clear
5:15 AM 66.2 °F - 59.0 °F 78% 30.19 in 10.0 mi North 11.5 mph - N/A   Clear
5:35 AM 66.2 °F - 60.8 °F 83% 30.20 in 10.0 mi NNW 12.7 mph - N/A   Clear
5:55 AM 66.2 °F - 60.8 °F 83% 30.21 in 10.0 mi NNW 6.9 mph - N/A   Clear
6:15 AM 66.2 °F - 60.8 °F 83% 30.22 in 10.0 mi North 10.4 mph - N/A   Partly Cloudy
6:35 AM 66.2 °F - 60.8 °F 83% 30.22 in 10.0 mi North 9.2 mph - N/A   Clear
6:55 AM 68.0 °F - 60.8 °F 78% 30.23 in 10.0 mi North 12.7 mph - N/A   Clear
7:15 AM 69.8 °F - 60.8 °F 73% 30.23 in 10.0 mi NNE 15.0 mph - N/A   Clear
7:35 AM 69.8 °F - 60.8 °F 73% 30.25 in 10.0 mi NNE 18.4 mph - N/A   Clear
7:55 AM 69.8 °F - 59.0 °F 68% 30.25 in 10.0 mi NNE 19.6 mph - N/A   Clear
8:15 AM 69.8 °F - 59.0 °F 68% 30.26 in 10.0 mi NNE 16.1 mph 20.7 mph N/A   Clear
8:35 AM 71.6 °F - 60.8 °F 69% 30.26 in 10.0 mi NNE 18.4 mph 21.9 mph N/A   Clear
8:55 AM 73.4 °F - 60.8 °F 65% 30.27 in 10.0 mi NNE 17.3 mph - N/A   Clear
9:15 AM 73.4 °F - 60.8 °F 65% 30.27 in 10.0 mi NNE 16.1 mph - N/A   Clear
9:35 AM 75.2 °F - 60.8 °F 61% 30.27 in 10.0 mi NNE 18.4 mph - N/A   Clear
9:55 AM 75.2 °F - 60.8 °F 61% 30.28 in 10.0 mi NNE 17.3 mph - N/A   Clear
10:15 AM 75.2 °F - 60.8 °F 61% 30.28 in 10.0 mi NE 15.0 mph 20.7 mph N/A   Clear
10:35 AM 77.0 °F - 60.8 °F 57% 30.29 in 10.0 mi NNE 15.0 mph - N/A   Clear
10:55 AM 78.8 °F - 60.8 °F 54% 30.29 in 10.0 mi NNE 16.1 mph 20.7 mph N/A   Clear
11:15 AM 78.8 °F - 60.8 °F 54% 30.29 in 10.0 mi NNE 16.1 mph 21.9 mph N/A   Clear
11:35 AM 78.8 °F - 60.8 °F 54% 30.29 in 10.0 mi NE 17.3 mph 20.7 mph N/A   Clear
11:55 AM 80.6 °F 80.8 °F 57.2 °F 45% 30.28 in 10.0 mi NE 16.1 mph - N/A   Clear
12:15 PM 80.6 °F 81.1 °F 59.0 °F 48% 30.28 in 10.0 mi NNE 17.3 mph 21.9 mph N/A   Clear
12:35 PM 82.4 °F 82.0 °F 57.2 °F 42% 30.27 in 10.0 mi NNE 15.0 mph - N/A   Clear
12:55 PM 82.4 °F 82.5 °F 59.0 °F 45% 30.27 in 10.0 mi NNE 18.4 mph 21.9 mph N/A   Clear
1:15 PM 82.4 °F 82.0 °F 57.2 °F 42% 30.26 in 10.0 mi NNE 18.4 mph 23.0 mph N/A   Clear
1:35 PM 82.4 °F 82.0 °F 57.2 °F 42% 30.26 in 10.0 mi NE 13.8 mph 21.9 mph N/A   Clear
1:55 PM 84.2 °F 83.8 °F 59.0 °F 42% 30.26 in 10.0 mi NNE 16.1 mph - N/A   Clear
2:15 PM 84.2 °F 83.5 °F 57.2 °F 40% 30.25 in 10.0 mi ENE 15.0 mph 20.7 mph N/A   Clear
2:35 PM 84.2 °F 83.5 °F 57.2 °F 40% 30.24 in 10.0 mi NE 15.0 mph 21.9 mph N/A   Clear
2:55 PM 84.2 °F 83.5 °F 57.2 °F 40% 30.24 in 10.0 mi NE 13.8 mph 23.0 mph N/A   Clear
3:15 PM 86.0 °F 84.9 °F 57.2 °F 37% 30.23 in 10.0 mi NE 13.8 mph 21.9 mph N/A   Clear
3:35 PM 86.0 °F 84.9 °F 57.2 °F 37% 30.23 in 10.0 mi ENE 15.0 mph 24.2 mph N/A   Clear
3:55 PM 86.0 °F 84.5 °F 55.4 °F 35% 30.23 in 10.0 mi ENE 10.4 mph - N/A   Clear
4:15 PM 86.0 °F 84.5 °F 55.4 °F 35% 30.22 in 10.0 mi East 12.7 mph 20.7 mph N/A   Clear
4:35 PM 86.0 °F 84.5 °F 55.4 °F 35% 30.22 in 10.0 mi East 13.8 mph 20.7 mph N/A   Clear
4:55 PM 84.2 °F 83.0 °F 55.4 °F 37% 30.22 in 10.0 mi ENE 13.8 mph 18.4 mph N/A   Clear
5:15 PM 84.2 °F 83.5 °F 57.2 °F 40% 30.22 in 10.0 mi ENE 11.5 mph 17.3 mph N/A   Clear
5:35 PM 84.2 °F 83.0 °F 55.4 °F 37% 30.23 in 10.0 mi ENE 15.0 mph 19.6 mph N/A   Clear
5:55 PM 84.2 °F 83.0 °F 55.4 °F 37% 30.23 in 10.0 mi East 16.1 mph - N/A   Clear
6:15 PM 82.4 °F 81.7 °F 55.4 °F 39% 30.23 in 10.0 mi ENE 16.1 mph - N/A   Clear
6:35 PM 82.4 °F 81.4 °F 53.6 °F 37% 30.23 in 10.0 mi ENE 15.0 mph - N/A   Clear
6:55 PM 80.6 °F - 50.0 °F 34% 30.24 in 10.0 mi ENE 12.7 mph 17.3 mph N/A   Clear
7:15 PM 78.8 °F - 51.8 °F 39% 30.24 in 10.0 mi ENE 10.4 mph - N/A   Clear
7:35 PM 77.0 °F - 53.6 °F 44% 30.25 in 10.0 mi ENE 10.4 mph - N/A   Clear
7:55 PM 75.2 °F - 53.6 °F 47% 30.26 in 10.0 mi ENE 9.2 mph - N/A   Clear
8:15 PM 73.4 °F - 55.4 °F 53% 30.26 in 10.0 mi ENE 8.1 mph - N/A   Clear
8:35 PM 71.6 °F - 55.4 °F 57% 30.27 in 10.0 mi East 8.1 mph - N/A   Clear
8:55 PM 71.6 °F - 55.4 °F 57% 30.28 in 9.0 mi East 8.1 mph - N/A   Clear
9:15 PM 69.8 °F - 55.4 °F 60% 30.29 in 10.0 mi East 6.9 mph - N/A   Clear
9:35 PM 69.8 °F - 57.2 °F 64% 30.29 in 10.0 mi East 4.6 mph - N/A   Clear
9:55 PM 69.8 °F - 57.2 °F 64% 30.29 in 10.0 mi East 5.8 mph - N/A   Clear
10:15 PM 66.2 °F - 57.2 °F 73% 30.30 in 10.0 mi East 5.8 mph - N/A   Clear
10:35 PM 66.2 °F - 55.4 °F 68% 30.30 in 10.0 mi East 3.5 mph - N/A   Clear
10:55 PM 66.2 °F - 55.4 °F 68% 30.30 in 10.0 mi ESE 6.9 mph - N/A   Clear
11:15 PM 64.4 °F - 55.4 °F 73% 30.30 in 10.0 mi East 5.8 mph - N/A   Clear
11:35 PM 66.2 °F - 55.4 °F 68% 30.30 in 10.0 mi East 4.6 mph - N/A   Clear
11:55 PM 64.4 °F - 55.4 °F 73% 30.30 in 10.0 mi East 5.8 mph - N/A   Clear